Le Mars, IA

9:04 AM CST on February 26, 2017 (GMT -0600)
Le Mars Municipal

Weather History for KLRJ - November, 2013

Change the Weather History Date:

Wednesday, November 13, 2013

  Actual Average Record
Temperature  
Mean Temperature 40 °F -  
Max Temperature 55 °F 44 °F 77 °F (1999)
Min Temperature 24 °F 26 °F -4 °F (1986)
Degree Days  
Heating Degree Days 26    
Moisture  
Dew Point 23 °F    
Average Humidity 56    
Maximum Humidity 75    
Minimum Humidity 36    
Precipitation  
Precipitation 0.00 in - - ()
Sea Level Pressure  
Sea Level Pressure 30.14 in    
Wind  
Wind Speed 15 mph (South)    
Max Wind Speed 25 mph    
Max Gust Speed 33 mph    
Visibility 10 miles    
Events      
Averages and records for this station are not official NWS values.
T = Trace of Precipitation, MM = Missing Value Source: NWS Daily Summary

Daily Weather History Graph

Daily Weather History Graph

Search for Another Location

Airport or City:

Trip Planner

Search our weather history database for the weather conditions in past years. The results will help you decide how hot, cold, wet, or windy it might be!

Date:

Astronomy

Nov. 13, 2013 Rise Set
Actual Time 7:14 AM CST 5:03 PM CST
Civil Twilight 6:44 AM CST 5:33 PM CST
Nautical Twilight 6:09 AM CST 6:07 PM CST
Astronomical Twilight 5:36 AM CST 6:41 PM CST
Moon 2:55 PM CST (11/13) 3:03 AM CST (11/13)
Length of Visible Light 10h 49m
Length of Day
9h 48m
Waxing Gibbous, 85% of the Moon is Illuminated
Nov 13
Waxing Gibbous
Nov 17
Full
Nov 25
Last Quarter
Dec 2
New
Dec 9
First Quarter

Hourly Weather History & Observations

Time (CST) Temp. Windchill Dew Point Humidity Pressure Visibility Wind Dir Wind Speed Gust Speed Precip Events Conditions
12:15 AM 24.8 °F 14.0 °F 12.2 °F 59% 30.47 in 10.0 mi South 11.5 mph - N/A   Clear
12:35 AM 24.8 °F 12.9 °F 12.2 °F 59% 30.46 in 10.0 mi South 13.8 mph - N/A   Clear
12:55 AM 24.8 °F 13.4 °F 12.2 °F 59% 30.44 in 10.0 mi South 12.7 mph - N/A   Clear
1:15 AM 24.8 °F 11.9 °F 12.2 °F 59% 30.44 in 10.0 mi South 16.1 mph - N/A   Clear
1:35 AM 24.8 °F 12.9 °F 14.0 °F 64% 30.43 in 10.0 mi South 13.8 mph - N/A   Clear
1:55 AM 24.8 °F 11.9 °F 14.0 °F 64% 30.42 in 10.0 mi South 16.1 mph - N/A   Clear
2:15 AM 24.8 °F 11.9 °F 14.0 °F 64% 30.41 in 10.0 mi South 16.1 mph 23.0 mph N/A   Clear
2:35 AM 26.6 °F 14.3 °F 14.0 °F 59% 30.40 in 10.0 mi South 16.1 mph - N/A   Clear
2:55 AM 26.6 °F 13.8 °F 14.0 °F 59% 30.39 in 10.0 mi South 17.3 mph - N/A   Clear
3:15 AM 26.6 °F 13.8 °F 14.0 °F 59% 30.37 in 10.0 mi South 17.3 mph 23.0 mph N/A   Clear
3:35 AM 26.6 °F 14.7 °F 14.0 °F 59% 30.36 in 10.0 mi South 15.0 mph 23.0 mph N/A   Clear
3:55 AM 26.6 °F 13.8 °F 14.0 °F 59% 30.35 in 10.0 mi South 17.3 mph 23.0 mph N/A   Clear
4:15 AM 26.6 °F 15.2 °F 14.0 °F 59% 30.34 in 10.0 mi South 13.8 mph - N/A   Clear
4:35 AM 26.6 °F 16.8 °F 14.0 °F 59% 30.32 in 10.0 mi South 10.4 mph 18.4 mph N/A   Clear
4:55 AM 26.6 °F 13.4 °F 14.0 °F 59% 30.30 in 10.0 mi South 18.4 mph - N/A   Clear
5:15 AM 26.6 °F 12.7 °F 14.0 °F 59% 30.28 in 10.0 mi South 20.7 mph 28.8 mph N/A   Clear
5:35 AM 26.6 °F 13.4 °F 15.8 °F 64% 30.28 in 10.0 mi South 18.4 mph 26.5 mph N/A   Clear
5:55 AM 26.6 °F 13.8 °F 14.0 °F 59% 30.27 in 10.0 mi South 17.3 mph - N/A   Clear
6:15 AM 24.8 °F 13.4 °F 15.8 °F 69% 30.27 in 10.0 mi South 12.7 mph - N/A   Clear
6:35 AM 24.8 °F 14.0 °F 15.8 °F 69% 30.26 in 10.0 mi South 11.5 mph 19.6 mph N/A   Clear
6:55 AM 24.8 °F 13.4 °F 15.8 °F 69% 30.26 in 10.0 mi South 12.7 mph - N/A   Clear
7:15 AM 24.8 °F 12.9 °F 15.8 °F 69% 30.25 in 10.0 mi South 13.8 mph - N/A   Clear
7:35 AM 24.8 °F 12.9 °F 15.8 °F 69% 30.25 in 10.0 mi South 13.8 mph 20.7 mph N/A   Clear
7:55 AM 26.6 °F 16.8 °F 17.6 °F 69% 30.25 in 10.0 mi South 10.4 mph 17.3 mph N/A   Clear
8:15 AM 28.4 °F 19.1 °F 17.6 °F 64% 30.24 in 10.0 mi South 10.4 mph - N/A   Clear
8:35 AM 30.2 °F 18.5 °F 17.6 °F 60% 30.23 in 10.0 mi South 17.3 mph - N/A   Clear
8:55 AM 32.0 °F 21.2 °F 19.4 °F 60% 30.22 in 10.0 mi South 16.1 mph 24.2 mph N/A   Clear
9:15 AM 32.0 °F 20.1 °F 19.4 °F 60% 30.21 in 10.0 mi South 19.6 mph 26.5 mph N/A   Clear
9:35 AM 33.8 °F 22.8 °F 21.2 °F 60% 30.20 in 10.0 mi South 18.4 mph 27.6 mph N/A   Clear
9:55 AM 35.6 °F 25.2 °F 21.2 °F 56% 30.19 in 10.0 mi SSW 18.4 mph 25.3 mph N/A   Clear
10:15 AM 37.4 °F 27.5 °F 23.0 °F 56% 30.18 in 10.0 mi South 18.4 mph 29.9 mph N/A   Clear
10:35 AM 39.2 °F 29.3 °F 23.0 °F 52% 30.17 in 10.0 mi SSW 20.7 mph 29.9 mph N/A   Clear
10:55 AM 41.0 °F 31.6 °F 24.8 °F 53% 30.16 in 10.0 mi SSW 20.7 mph 28.8 mph N/A   Clear
11:15 AM 42.8 °F 34.0 °F 24.8 °F 49% 30.14 in 10.0 mi South 20.7 mph - N/A   Clear
11:35 AM 46.4 °F 38.3 °F 26.6 °F 46% 30.12 in - SSW 23.0 mph - N/A   Clear
11:55 AM 46.4 °F 39.0 °F 26.6 °F 46% 30.12 in 10.0 mi SSW 19.6 mph - N/A   Clear
12:15 PM 48.2 °F - 26.6 °F 43% 30.10 in 10.0 mi SSW 18.4 mph 25.3 mph N/A   Clear
12:35 PM 50.0 °F - 28.4 °F 43% 30.09 in 10.0 mi South 18.4 mph 28.8 mph N/A   Clear
12:55 PM 51.8 °F - 28.4 °F 41% 30.08 in 10.0 mi SSW 23.0 mph 29.9 mph N/A   Clear
1:15 PM 53.6 °F - 28.4 °F 38% 30.05 in 10.0 mi SSW 25.3 mph - N/A   Clear
1:35 PM 53.6 °F - 28.4 °F 38% 30.05 in 10.0 mi SSW 20.7 mph 29.9 mph N/A   Clear
1:55 PM 55.4 °F - 28.4 °F 36% 30.03 in 10.0 mi SSW 23.0 mph - N/A   Clear
2:15 PM 55.4 °F - 28.4 °F 36% 30.01 in 10.0 mi SSW 24.2 mph 33.4 mph N/A   Clear
2:35 PM 55.4 °F - 30.2 °F 38% 30.01 in 10.0 mi SSW 25.3 mph 32.2 mph N/A   Clear
2:55 PM 55.4 °F - 30.2 °F 38% 30.00 in 10.0 mi SSW 19.6 mph 27.6 mph N/A   Clear
3:15 PM 55.4 °F - 30.2 °F 38% 30.00 in 10.0 mi SSW 21.9 mph 28.8 mph N/A   Clear
3:35 PM 55.4 °F - 30.2 °F 38% 30.00 in 10.0 mi SSW 16.1 mph 27.6 mph N/A   Clear
3:55 PM 55.4 °F - 30.2 °F 38% 30.01 in 10.0 mi SSW 15.0 mph 27.6 mph N/A   Clear
4:15 PM 55.4 °F - 30.2 °F 38% 30.00 in 10.0 mi SSW 16.1 mph - N/A   Clear
4:35 PM 53.6 °F - 30.2 °F 41% 30.01 in 10.0 mi SSW 13.8 mph 19.6 mph N/A   Clear
4:55 PM 50.0 °F - 30.2 °F 47% 30.00 in 10.0 mi SSW 11.5 mph - N/A   Clear
5:15 PM 48.2 °F - 30.2 °F 50% 30.00 in 10.0 mi South 10.4 mph - N/A   Clear
5:35 PM 46.4 °F 41.5 °F 30.2 °F 53% 30.00 in 10.0 mi South 10.4 mph - N/A   Clear
5:55 PM 44.6 °F 39.7 °F 30.2 °F 57% 30.01 in 10.0 mi South 9.2 mph - N/A   Clear
6:15 PM 44.6 °F 38.4 °F 30.2 °F 57% 30.00 in 10.0 mi South 12.7 mph - N/A   Clear
6:35 PM 44.6 °F 39.2 °F 30.2 °F 57% 30.01 in 10.0 mi South 10.4 mph 16.1 mph N/A   Clear
6:55 PM 44.6 °F 38.4 °F 30.2 °F 57% 30.00 in 10.0 mi South 12.7 mph - N/A   Clear
7:15 PM 42.8 °F 36.6 °F 30.2 °F 61% 30.00 in 10.0 mi South 11.5 mph - N/A   Clear
7:35 PM 41.0 °F 35.2 °F 30.2 °F 65% 29.99 in 10.0 mi South 9.2 mph 15.0 mph N/A   Clear
7:55 PM 41.0 °F 35.2 °F 30.2 °F 65% 29.99 in 10.0 mi South 9.2 mph - N/A   Clear
8:15 PM 41.0 °F 35.2 °F 30.2 °F 65% 29.98 in 10.0 mi South 9.2 mph - N/A   Clear
8:35 PM 41.0 °F 34.3 °F 30.2 °F 65% 29.97 in 10.0 mi South 11.5 mph - N/A   Clear
8:55 PM 41.0 °F 33.5 °F 28.4 °F 61% 29.96 in 10.0 mi South 13.8 mph - N/A   Clear
9:15 PM 41.0 °F 34.3 °F 28.4 °F 61% 29.95 in 10.0 mi South 11.5 mph - N/A   Clear
9:35 PM 41.0 °F 33.5 °F 28.4 °F 61% 29.95 in 10.0 mi South 13.8 mph 20.7 mph N/A   Clear
9:55 PM 39.2 °F 31.6 °F 28.4 °F 65% 29.95 in 10.0 mi South 12.7 mph - N/A   Clear
10:15 PM 39.2 °F 32.5 °F 28.4 °F 65% 29.94 in 10.0 mi South 10.4 mph - N/A   Clear
10:35 PM 39.2 °F 32.0 °F 28.4 °F 65% 29.94 in 10.0 mi South 11.5 mph - N/A   Clear
10:55 PM 37.4 °F 30.8 °F 28.4 °F 70% 29.94 in 10.0 mi South 9.2 mph - N/A   Clear
11:15 PM 37.4 °F 32.1 °F 28.4 °F 70% 29.93 in 10.0 mi SSW 6.9 mph - N/A   Clear
11:35 PM 37.4 °F 31.4 °F 28.4 °F 70% 29.93 in 10.0 mi South 8.1 mph - N/A   Clear
11:55 PM 35.6 °F 29.9 °F 28.4 °F 75% 29.93 in 10.0 mi SSW 6.9 mph - N/A   Clear